Flag for U.S.A. Weather past 2 weeks in Fall River, Massachusetts, U.S.A.

Now
23 °F

Clear.


Feels Like: 13 °F
Forecast: 13 / 30 °F
Wind: 9 mph from West

Location: New Bedford Regional Airport

Current Time: Mar 3, 2015 at 12:42:22 AM

Latest Report: Mar 2, 2015 at 11:53 PM


Visibility: 10 mi

Pressure: 30.25 "Hg

Humidity: 55%

Dew point: 9 °F

Location of Fall RiverLocation

Historic Weather in Fall River — Graph

°F

Fall River temperature yesterday

Maximum temperature yesterday: 36 °F (at 12:53 PM)
Minimum temperature yesterday: 24 °F (at 10:53 PM)
Average temperature yesterday: 31 °F

Past Weeks' High & Low Weather Summary

 TemperatureHumidityPressure
High40 °F (Feb 22, 1:53 AM)100% (Feb 19, 5:53 AM)30.75 "Hg (Feb 19, 5:53 AM)
Low-9 °F (Feb 21, 3:53 AM)29% (Feb 16, 2:53 PM)29.56 "Hg (Feb 19, 1:53 PM)
Average20 °F66%30.11 "Hg
* Reported Feb 15 10:53 PM — Mar 2 10:53 PM, Fall River, Weather by CustomWeather, © 2015

Note: Actual official high and low records may vary slightly from our data, if they occured in-between our weather recording intervals... More about our weather records

Advertising

Fall River weather history for previous 24 hours

 ConditionsComfort  
Time TempWeatherWind HumidityBarometerVisibility
10:53 PM
Mon, Mar 2
24 °FClear.9 mph55%30.22 "Hg10 mi
9:53 PM27 °FClear.10 mph49%30.20 "Hg10 mi
8:53 PM27 °FClear.12 mph49%30.18 "Hg10 mi
7:53 PM29 °FClear.10 mph43%30.16 "Hg10 mi
6:53 PM29 °FClear.9 mph47%30.12 "Hg10 mi
5:53 PM31 °FClear.14 mph43%30.07 "Hg10 mi
4:53 PM32 °FSunny.18 mph45%30.03 "Hg10 mi
3:53 PM34 °FSunny.22 mph42%30.02 "Hg10 mi
2:53 PM36 °FPassing clouds.21 mph38%29.99 "Hg10 mi
1:53 PM36 °FPartly sunny.15 mph44%29.97 "Hg10 mi
12:53 PM36 °FPassing clouds.20 mph48%29.97 "Hg10 mi
11:53 AM35 °FPassing clouds.23 mph52%29.96 "Hg10 mi
10:53 AM34 °FPassing clouds.12 mph64%29.95 "Hg10 mi
9:53 AM31 °FMostly cloudy.12 mph76%29.96 "Hg10 mi
8:53 AM30 °FOvercast.9 mph85%29.96 "Hg10 mi
7:53 AM29 °FOvercast.7 mph89%29.96 "Hg10 mi
6:53 AM28 °FMostly cloudy.7 mph93%29.96 "Hg10 mi
5:53 AM29 °FOvercast.7 mph89%29.96 "Hg10 mi
4:53 AM29 °FOvercast.6 mph93%29.98 "Hg10 mi
3:53 AM30 °FMostly cloudy.5 mph92%29.98 "Hg10 mi
2:53 AM29 °FOvercast.7 mph96%29.99 "Hg10 mi
1:53 AM30 °FMostly cloudy.8 mph92%30.03 "Hg10 mi
1:01 AM30 °FLight snow. Mostly cloudy.6 mph96%30.06 "Hg8 mi
12:00 AM31 °FLight snow. Ice fog.5 mph96%30.10 "Hg2 mi
Weather by CustomWeather, © 2015

See weather overviewHow to use our weather pages